Simultaneous Nadir Overpasses (SNOs) Predictions

Prediction of SNOs between GOES-15 and LANDSAT-8 Satellite Orbit:

Table of predicted SNOs for the next 14.0 days since TLE Epoch: 11/4/2023
Index Date Time (GOES-15) GOES-15 Lat,Lon LANDSAT-8 Lat,Lon Distance(km) Time Diff (sec)
1 11/04/2023 05:56:42 -0.28, 62.82 -0.42, 63.56 83.80 80
2 11/04/2023 18:20:45 0.27, 62.71 -0.69, 58.37 495.02 80
3 11/06/2023 18:08:36 0.26, 61.95 0.15, 61.28 75.18 80
4 11/08/2023 17:53:45 0.26, 61.19 0.89, 64.22 344.62 80
5 11/09/2023 06:17:41 -0.25, 60.90 0.15, 59.06 209.71 80
6 11/11/2023 06:02:51 -0.26, 60.14 -0.67, 61.98 210.24 80
7 11/11/2023 18:26:54 0.25, 60.03 -0.47, 56.80 367.58 80
8 11/13/2023 18:12:03 0.25, 59.28 0.33, 59.73 51.16 80
9 11/15/2023 17:59:52 0.25, 58.54 1.15, 62.66 469.26 80
10 11/16/2023 06:23:47 -0.23, 58.26 -0.06, 57.50 86.70 80
